HELLAS-SAT 4 & SGS-1 (44034 NORAD) Tracking and Keplerian Element Data

This shows tracking and keplerian element data for the satellite.

Feedback or suggestion? Click here.




ElementValue
Catalog44034
NameHELLAS-SAT 4 & SGS-1
Epoch Orbit50
Epoch Day65.34355128
Epoch Year2019
RAAN273.6942
Inclination1.1364
Eccentricity0.3107888
Argument of Perigee179.329
Mean Anonmoly256.2955
Mean Motion1.51115736
Decay Rate-9E-07
L11 44034U 19007A 19065.34355128 -.00000090 00000-0 00000+0 0 9993
L22 44034 1.1364 273.6942 3107888 179.3290 256.2955 1.51115736 500

Live tracking and technical data element details for HELLAS-SAT 4 & SGS-1 (NORAD 44034). HELLAS-SAT 4 & SGS-1 can be tracked NOW for your location showing map with azimuth and elevation plus other details from your city location.

Track the satellite on the map from your city or location and see movement details for azimuth, elevation, latitude, longitude, range, height, and movement on the map or in text.







IsCatalogInMostPopularTable: catalog: 44034, numindb: 145
Update: records affected: 1



GetName: 44034 HELLAS-SAT 4 & SGS-1

Hit Count: updated at: Mon, 22 Jul 2019 03:43:23 GMT